Location: Rowland
(34.5359°N, 79.2929°W)
Time: 11:30:24
(UTC+00:00)

Vanguard 2 - Pass Details

Date: 05 October 2022
Orbit: 553 x 2932 km, 32.9° (Epoch: 08 December)

Event Time Altitude Azimuth Distance (km) Brightness Sun altitude
Rises 01:45:43 0° 278° (W) 6,730 13.3 -35.0°
Reaches altitude 10° 01:52:19 10° 263° (W) 5,761 12.6 -36.3°
Maximum altitude 02:02:32 19° 227° (SW) 4,859 11.7 -38.2°
Drops below altitude 10° 02:11:46 10° 190° (S) 5,093 11.5 -39.9°
Enters shadow 02:13:10 - 185° (S) 5,224 11.6 -40.2°
